This is the latest recevied weather packets stored in our database for station/object IT9CNT. If no packets are shown the sender has not sent any weather packets the latest 10 day(s).
| Time | Temp. | Humidity | Pressure | Rain* | Wind** | Luminosity | Snow |
|---|---|---|---|---|---|---|---|
| 1787431563 | 27.22° C | 92% | 1013.7 hPa | 0 mm | - | - | - |
| 1787431503 | 27.22° C | 92% | 1013.4 hPa | 0 mm | - | - | - |
| 1787431443 | 27.78° C | 91% | 1013.5 hPa | 0 mm | - | - | - |
| 1787431383 | 27.78° C | 91% | 1013.7 hPa | 0 mm | - | - | - |
| 1787431323 | 27.78° C | 91% | 1013.6 hPa | 0 mm | - | - | - |
| 1787431263 | 27.78° C | 91% | 1013.6 hPa | 0 mm | - | - | - |
| 1787431203 | 27.78° C | 91% | 1013.5 hPa | 0 mm | - | - | - |
| 1787431143 | 27.78° C | 91% | 1013.4 hPa | 0 mm | - | - | - |
| 1787431083 | 27.78° C | 91% | 1013.5 hPa | 0 mm | - | - | - |
| 1787431023 | 27.78° C | 91% | 1013.4 hPa | 0.25 mm | - | - | - |
| 1787430963 | 27.78° C | 91% | 1013.4 hPa | 0.51 mm | - | - | - |
| 1787430903 | 27.78° C | 91% | 1013.5 hPa | 1.02 mm | - | - | - |
| 1787430843 | 27.78° C | 91% | 1013.3 hPa | 1.27 mm | - | - | - |
| 1787430783 | 27.78° C | 91% | 1013.2 hPa | 1.27 mm | - | - | - |
| 1787430723 | 27.78° C | 90% | 1013.4 hPa | 2.03 mm | - | - | - |
| 1787430663 | 27.78° C | 90% | 1013.4 hPa | 2.03 mm | - | - | - |
| 1787430603 | 27.78° C | 91% | 1013.5 hPa | 2.79 mm | - | - | - |
| 1787430544 | 27.78° C | 91% | 1013.4 hPa | 2.79 mm | - | - | - |
| 1787430483 | 27.78° C | 91% | 1013.4 hPa | 3.05 mm | - | - | - |
| 1787430423 | 27.78° C | 91% | 1013.4 hPa | 3.56 mm | - | - | - |
| 1787430363 | 27.78° C | 91% | 1013.4 hPa | 3.56 mm | - | - | - |
| 1787430303 | 27.78° C | 91% | 1013.3 hPa | 3.81 mm | - | - | - |
| 1787430243 | 27.78° C | 91% | 1013.2 hPa | 4.57 mm | - | - | - |
| 1787430183 | 27.78° C | 91% | 1013.4 hPa | 4.57 mm | - | - | - |
| 1787430124 | 27.78° C | 91% | 1013.5 hPa | 5.08 mm | - | - | - |
* Rain latest hour (hover to see other rain measurements)
** Current wind speed in m/s (hover to see current wind gust speed)